Regional Weather Roundup
Issued by NWS

Home | Current Version | Previous Version | Text Only | Print | Product List | Glossary Off
Versions: 1 2 3 4 5 6 7 8 9 10 11 12 13 14 15 16 17 18 19 20 21 22 23 24 25 26 27 28

000
ASUS45 KBOI 202310
RWRID

IDAHO REGIONAL WEATHER ROUNDUP
NATIONAL WEATHER SERVICE BOISE ID
500 PM MDT WED SEP 20 2017

NOTE: "FAIR" INDICATES FEW OR NO CLOUDS BELOW 12000 FEET
WITH NO SIGNIFICANT WEATHER AND/OR OBSTRUCTIONS TO VISIBILITY

IDZ012-014-210000-
SOUTHWEST IDAHO


CITY           SKY/WX    TMP DP  RH WIND       PRES   REMARKS
BOISE          CLOUDY    53  48  83 NE8       29.73F
CALDWELL       CLOUDY    57  47  69 CALM      29.72F
MOUNTAIN HOME  PTSUNNY   52  48  85 N14       29.73R
$$

IDZ016-017-210000-
SOUTHCENTRAL IDAHO


CITY           SKY/WX    TMP DP  RH WIND       PRES   REMARKS
BURLEY         CLOUDY    62  37  39 W6        29.69F
JEROME         CLOUDY    65  40  39 SW16      29.68F
TWIN FALLS     CLOUDY    65  33  30 SW16G23   29.68F
$$

IDZ019>023-210000-
SOUTHEAST IDAHO


CITY           SKY/WX    TMP DP  RH WIND       PRES   REMARKS
IDAHO FALLS    PTSUNNY   62  34  35 SW16G23   29.72F
POCATELLO      PTSUNNY   63  37  38 SW9       29.73R
REXBURG        CLOUDY    61  32  33 SW18G28   29.71F
$$

IDZ006-010-011-018-031-032-210000-
CENTRAL IDAHO MOUNTAINS


CITY           SKY/WX    TMP DP  RH WIND       PRES   REMARKS
MCCALL         PTSUNNY   45  37  73 CALM      29.71R
HAILEY         CLOUDY    50  41  71 SE6       29.77R
STANLEY          N/A     35  34  96 CALM      29.77R
SALMON         LGT RAIN  51  38  60 SW18      29.67R
CHALLIS        CLOUDY    48  41  76 E7        29.71S
$$

IDZ002-004-006-007-026-210000-
NORTHERN IDAHO


CITY           SKY/WX    TMP DP  RH WIND       PRES   REMARKS
LEWISTON       PTSUNNY   54  43  66 NW3       29.68S
LOWELL           N/A     51  46  83 N5        29.70F
COEUR D`ALENE  RAIN      44  41  89 SW8       29.67R
MULLAN PASS    SNOW      32  30  92 CALM      29.62S VSB 1/4
$$




USA.gov is the U.S. government's official web portal to all federal, state and local government web resources and services.